Regional Weather Roundup
Issued by NWS

Home | Current Version | Previous Version | Graphics & Text | Print | Product List | Glossary On
Versions: 1 2 3 4 5 6 7 8 9 10 11 12 13 14 15 16 17 18 19 20 21 22 23 24 25 26 27 28 29 30 31 32 33 34 35 36 37 38 39 40 41 42 43 44 45 46 47 48 49 50
000
ASUS43 KDMX 231001
RWRIA

WEATHER ROUNDUP FOR IOWA
NATIONAL WEATHER SERVICE DES MOINES IA
500 AM CDT MON APR 23 2018

NOTE: "FAIR" INDICATES FEW OR NO CLOUDS BELOW 12,000 FEET WITH NO
SIGNIFICANT WEATHER AND/OR OBSTRUCTIONS TO VISIBILITY.

* - THESE STATIONS ARE NOT NWS STATIONS...THUS NOT UNDER NWS
QUALITY CONTROL.  THEY ALSO DO NOT REPORT WEATHER SUCH
AS PRECIPITATION OR FOG.

IAZ001>003-012>014-020>022-031>034-043>046-231100-
   NORTHWEST IOWA

CITY           SKY/WX    TMP DP  RH WIND       PRES   REMARKS
CARROLL *      CLOUDY    37  32  81 NW5       30.19S WCI  34
CHEROKEE *     CLEAR     37  37 100 CALM      30.22S
DENISON *      CLEAR     37  30  75 NE3       30.20S
LE MARS *      CLOUDY    34  34 100 N3        30.20F FOG
ORANGE CITY *  CLOUDY    41  37  87 E6        30.20S
SHELDON *      CLOUDY    37  37 100 E6        30.20R WCI  33
SIOUX CITY     PTCLDY    36  33  89 NW5       30.20R WCI  32
SPENCER        CLEAR     32  31  96 CALM      30.22S
STORM LAKE *   CLOUDY    37  37 100 NE6       30.20S WCI  33
$$

IAZ055>058-069>071-079>083-090>094-231100-
   SOUTHWEST IOWA

CITY           SKY/WX    TMP DP  RH WIND       PRES   REMARKS
ATLANTIC *     PTCLDY    36  30  80 N5        30.18S WCI  32
AUDUBON *      PTCLDY    36  30  80 CALM      30.19S
CLARINDA *     MOCLDY    41  28  60 NE7       30.18S
COUNCIL BLFS * CLEAR     46  27  46 E6        30.17S
CRESTON *        N/A     48  32  53 NE10      30.17S
HARLAN  *      CLEAR     37  30  75 N5        30.21S WCI  34
LAMONI         CLOUDY    51  31  46 NE7       30.14S
RED OAK *      PTCLDY    39  28  65 N8        30.17S WCI  34
SHENANDOAH *   PTCLDY    37  30  75 CALM      30.16F
$$

IAZ047>049-059>061-072>074-084-231100-
   CENTRAL IOWA

CITY           SKY/WX    TMP DP  RH WIND       PRES   REMARKS
AMES           PTCLDY    46  33  60 NE6       30.19S
ANKENY *       CLOUDY    46  32  57 N5        30.19S
BOONE *        CLEAR     41  34  75 NE9       30.18F
CHARITON *     PTCLDY    46  32  57 N7        30.15S
DES MOINES     CLOUDY    51  29  42 NE6       30.18R
GRINNELL*      CLOUDY    46  30  54 NE8       30.19S
KNOXVILLE *    CLOUDY    50  28  43 NE9       30.15S
MARSHALLTOWN   CLOUDY    45  33  63 NE7       30.19S
NEWTON *       CLOUDY    48  28  46 NE10      30.18S
PELLA *        PTCLDY    49  28  45 CALM      30.18S
$$

IAZ004>006-015-016-023>025-035-036-231100-
   NORTH CENTRAL IOWA

CITY           SKY/WX    TMP DP  RH WIND       PRES   REMARKS
ALGONA *       CLEAR     37  34  87 NE3       30.22S
CLARION *      CLOUDY    46  36  66 E8        30.20F
ESTHERVILLE    CLEAR     33  31  92 N3        30.22S
FORT DODGE *   CLOUDY    44  39  82 CALM      30.21S
MASON CITY     PTCLDY    35  31  85 NE6       30.24S WCI  30
IOWA FALLS *   FAIR      43  35  72 NE7       30.22S
$$

IAZ007>011-017>019-026>030-037>042-050>054-066-231100-
   NORTHEAST IOWA

CITY           SKY/WX    TMP DP  RH WIND       PRES   REMARKS
CEDAR RAPIDS   FAIR      49  29  46 NE10      30.18S
CHARLES CITY * FAIR      39  32  75 NE7       30.24R WCI  34
CLINTON *      FAIR      40  30  67 NE13      30.20S WCI  32
DECORAH *      FAIR      43  28  56 CALM      30.23S
DUBUQUE        FAIR      42  28  57 NE9       30.21F
MONTICELLO *   FAIR      45  30  57 NE3       30.21S
OELWEIN *      CLOUDY    41  34  75 NE7       30.22S
WATERLOO       FAIR      41  33  73 CALM      30.21S
$$

IAZ064-065-067-068-078-231100-
   EAST CENTRAL IOWA

CITY           SKY/WX    TMP DP  RH WIND       PRES   REMARKS
DAVENPORT      FAIR      40  28  62 NE9       30.20S WCI  34
IOWA CITY      FAIR      48  28  46 NE9       30.20R
MUSCATINE *    FAIR      43  30  61 NE5       30.18S
QUAD CITIES    FAIR      45  28  51 NE7       30.18R
$$

IAZ062-063-075>077-085>089-095>099-231100-
   SOUTHEAST IOWA

CITY           SKY/WX    TMP DP  RH WIND       PRES   REMARKS
BURLINGTON     PTCLDY    50  27  40 NE14      30.12F
FAIRFIELD *    CLOUDY    48  28  46 NE10      30.15R
FORT MADISON * CLOUDY    50  30  46 NE8       30.13S
KEOKUK *       CLOUDY    50  30  46 NE8       30.11S
CENTERVILLE *    N/A     48  32  53 N5        30.15S
OTTUMWA        CLOUDY    48  30  49 NE9       30.15S
WASHINGTON *   CLOUDY    46  30  53 NE12      30.17S
$$

ABBREVIATIONS USED IN REMARKS
   TC - TEMPERATURES IN CELSIUS
  WCI - WIND CHILL INDEX
   HX - HEAT INDEX
  VSB - VISIBILITY
$$





USA.gov is the U.S. government's official web portal to all federal, state and local government web resources and services.